Погода в Бабине

Россия / Смоленская область     55°09′53″N   32°23′05″E
темп.,
°C
ветер,
м/с
пор.,
м/с
влажн.,
%
обл.,
%
осадки,
мм/ч
давл.,
гПа
погр.,
м
22 октября, пт
пт2200:00+12юз71772100 0.0 9921147
03:00+12зюз81869100 0.1 9921633
06:00+9зюз5137849 0.0 9941103
09:00+9юз8187095 0.1 9941797
12:00+9зюз716677 0.6 9981751
15:00+8зюз815635 0.9 10001704
18:00+7зюз7146821 0.0 10011250
21:00+6зюз61369100 0.0 10021075
23 октября, сб
сб2300:00+6юз61370100 0.0 10021088
03:00+5юз61578100 0.0 10011311
06:00+4юз61492100 0.0 10011126
09:00+5зюз5128275 0.3 10021337
12:00+7зюз6117059 0.4 10041290
15:00+6зюз6116683 1.0 10051346
18:00+5зюз6107292 0.0 10071049
21:00+4зюз5127983 0.1 1008996
24 октября, вс
вс2400:00+4зсз51094100 0.3 1010902
03:00+2зсз51089100 0.3 1012847
06:00+2зсз4109598 0.3 1014689
09:00+2сз41096100 0.7 1016737
12:00+2сз61088100 0.5 10191005
15:00+2сз6107067 0.8 10211173
18:00+1ссз5117933 0.0 1024884
21:00−1сз4108795 0.0 1026618
25 октября, пн
пн2500:00−1ссз39895 0.0 1028432
03:00−2сз37915 0.0 1030267
06:00−2сз2588100 0.0 1031171
09:00−1зсз2378100 0.0 1032183
12:00+2зюз23615 0.0 1032590
15:00+4зюз355451 0.0 1031702
18:000ююз38745 0.0 1031183
21:000юз311740 0.0 1030296
26 октября, вт
вт2600:00−1юз413730 0.0 1029344
03:00−1юз4137355 0.0 1029351
06:00−1юз4147190 0.0 1027380
09:000юз5146787 0.0 1026445
12:00+4юз5145699 0.0 1023577
15:00+6юз61455100 0.0 1021768
18:00+3юз51464100 0.0 1020578
21:00+3юз51469100 0.0 1019532